This is the latest recevied weather packets stored in our database for station/object KC3UTO. If no packets are shown the sender has not sent any weather packets the latest 10 day(s).
| Time | Temp. | Humidity | Pressure | Rain* | Wind** | Luminosity | Snow |
|---|---|---|---|---|---|---|---|
| 1777510020 | 10.56° C | 92% | 1009.1 hPa | 4.83 mm | - | 0 W/m² | - |
| 1777509716 | 10.56° C | 91% | 1009.2 hPa | 3.05 mm | - | 0 W/m² | - |
| 1777509413 | 10.56° C | 91% | 1008.7 hPa | 1.78 mm | - | 0 W/m² | - |
| 1777509110 | 10.56° C | 91% | 1008.7 hPa | 1.78 mm | - | 0 W/m² | - |
| 1777508807 | 10.56° C | 91% | 1008.6 hPa | 1.78 mm | - | 0 W/m² | - |
| 1777508504 | 10.56° C | 91% | 1008.7 hPa | 3.05 mm | - | 0 W/m² | - |
| 1777508202 | 10.56° C | 90% | 1008.8 hPa | 3.05 mm | - | 0 W/m² | - |
| 1777507898 | 10.56° C | 90% | 1008.7 hPa | 2.29 mm | - | 0 W/m² | - |
| 1777507595 | 11.11° C | 91% | 1008.6 hPa | 2.29 mm | - | 0 W/m² | - |
| 1777507292 | 11.11° C | 91% | 1008.9 hPa | 2.29 mm | - | 0 W/m² | - |
| 1777506989 | 11.11° C | 91% | 1008.9 hPa | 1.78 mm | - | 0 W/m² | - |
| 1777506687 | 11.11° C | 91% | 1009.1 hPa | 0.51 mm | - | 0 W/m² | - |
| 1777506383 | 11.11° C | 91% | 1009 hPa | 0.51 mm | - | 0 W/m² | - |
| 1777506079 | 11.11° C | 91% | 1008.8 hPa | 0.51 mm | - | 1 W/m² | - |
| 1777505775 | 11.67° C | 91% | 1008.7 hPa | 0 mm | - | 1 W/m² | - |
| 1777505472 | 11.67° C | 91% | 1008.8 hPa | 0 mm | - | 1 W/m² | - |
| 1777505168 | 11.67° C | 91% | 1008.9 hPa | 0.51 mm | - | 2 W/m² | - |
| 1777504865 | 11.67° C | 91% | 1008.7 hPa | 1.78 mm | - | 2 W/m² | - |
| 1777504562 | 11.67° C | 91% | 1008.8 hPa | 2.29 mm | - | 3 W/m² | - |
| 1777504258 | 12.22° C | 91% | 1008.6 hPa | 0.51 mm | - | 6 W/m² | - |
| 1777503954 | 12.22° C | 91% | 1008.6 hPa | 0 mm | - | 7 W/m² | - |
| 1777503650 | 12.22° C | 91% | 1008.7 hPa | 0 mm | - | 10 W/m² | - |
| 1777503347 | 12.22° C | 91% | 1008.8 hPa | 0.51 mm | - | 11 W/m² | - |
| 1777503043 | 11.67° C | 91% | 1008.5 hPa | 0 mm | - | 13 W/m² | - |
| 1777502741 | 11.67° C | 91% | 1008.1 hPa | 0.51 mm | - | 17 W/m² | - |
* Rain latest hour (hover to see other rain measurements)
** Current wind speed in m/s (hover to see current wind gust speed)